Theta_e
352 352 351 351 351 352 352 352 353 354 355 355 356 355 355 355 355 355 355 355 354 354 355 355 355 353 352 350 349 349 349 350 351 351 352 352 353 355 360 361 361 361 361 360 361 360 360 360 360 359 360 359 359 360 360 361 361 361 362 361 361 361 361 361 361 362 362 362 362 362 362 362 362 362 362 362 362 363 361 360 360 359 359 359 359
351 350 351 350 351 352 353 353 353 354 354 354 355 355 355 355 356 356 355 354 354 355 358 355 353 350 347 346 346 348 350 350 350 350 352 352 352 354 360 361 362 362 362 362 362 363 363 362 362 362 362 362 362 362 362 363 363 363 363 362 363 363 363 362 362 362 363 363 364 365 365 364 363 364 363 363 364 364 363 362 362 361 361 360 359
351 350 351 351 352 354 353 353 354 354 355 355 356 358 357 356 355 355 355 354 354 355 356 354 353 350 346 346 345 349 349 350 349 349 350 352 352 352 354 360 363 363 363 363 363 363 363 364 364 364 364 364 364 364 364 363 364 365 364 364 364 364 363 363 364 364 364 365 365 365 365 365 365 365 365 364 364 365 364 363 362 361 360 360 359
352 353 353 353 354 354 354 354 355 355 357 356 357 357 357 358 358 359 358 357 356 357 355 353 351 349 345 344 346 348 349 349 348 349 349 351 351 351 353 354 358 363 364 365 364 364 364 364 364 364 364 364 365 365 365 366 366 366 366 366 365 365 364 365 365 365 365 365 365 365 365 365 365 364 364 364 365 364 364 363 362 361 360 359 357
353 356 360 352 353 353 353 355 354 354 354 356 358 359 357 358 357 360 356 359 356 354 355 353 350 349 344 344 345 347 349 349 350 349 347 348 350 351 351 353 355 357 360 365 366 366 366 366 366 366 365 365 365 365 365 366 366 367 366 367 366 365 365 366 366 366 365 365 365 365 365 365 365 364 364 364 365 364 363 363 362 361 359 358 355
353 353 354 353 353 352 352 352 353 354 355 358 358 358 358 357 358 357 359 357 352 353 354 352 351 348 345 342 343 346 348 348 349 349 348 347 349 350 350 351 352 354 357 359 361 364 367 367 367 366 367 367 367 368 368 368 368 368 369 368 368 367 367 367 366 366 366 365 365 365 365 365 365 365 364 364 364 363 363 362 361 359 359 357 354
354 354 353 353 352 351 351 351 353 356 358 358 361 360 357 358 358 357 356 353 353 357 356 352 350 345 345 346 343 342 346 347 349 349 348 349 350 348 350 351 351 353 354 356 358 360 361 363 366 368 368 368 368 370 370 370 370 369 369 369 368 368 369 369 368 367 366 365 365 365 365 364 364 364 365 364 362 362 362 362 360 359 358 356 353
356 353 353 351 351 350 351 352 354 359 360 359 362 360 359 358 357 358 356 355 359 356 356 353 352 347 345 346 344 348 344 346 347 348 348 351 351 349 349 350 351 351 355 356 356 356 358 361 362 364 366 369 370 370 370 370 370 370 369 368 368 368 368 369 368 368 367 367 366 366 366 365 365 364 364 364 362 362 362 360 359 358 357 356 354
356 355 352 351 351 351 351 354 358 361 359 358 358 362 359 356 357 361 358 357 356 355 355 354 353 351 342 344 342 346 345 346 344 346 348 351 350 348 347 348 350 355 358 356 356 357 356 358 360 361 362 365 368 370 370 370 370 370 369 368 367 367 368 368 369 369 368 369 368 368 367 367 366 366 365 364 363 362 361 360 360 358 357 356 354
355 355 353 353 352 351 352 354 358 360 360 357 357 359 360 357 357 357 360 359 357 355 355 355 353 353 347 339 345 348 346 345 345 351 352 349 351 349 348 347 348 348 350 352 352 356 355 355 357 359 360 361 363 368 370 370 369 371 371 368 367 367 368 369 369 369 370 370 370 370 369 368 368 367 366 365 364 363 362 361 360 357 355 355 355
355 357 354 354 355 356 355 355 361 360 357 355 354 360 361 358 357 359 361 360 358 357 357 354 354 346 346 344 342 346 348 345 351 348 349 347 347 351 348 351 349 350 352 353 353 354 356 357 356 355 355 356 359 362 364 369 372 373 372 372 367 367 368 370 370 370 370 371 372 371 370 370 369 369 367 365 365 363 363 362 361 360 357 354 352
356 356 356 357 355 355 355 357 362 359 356 354 354 358 360 359 358 359 359 358 359 358 351 347 346 340 345 343 342 343 345 350 352 347 350 347 347 350 349 351 352 352 352 354 356 355 357 359 361 359 358 356 358 361 363 366 370 372 372 371 369 368 368 370 371 371 372 372 373 372 371 370 370 369 368 367 366 364 363 363 362 361 360 357 354
360 357 356 359 363 358 356 359 361 361 359 355 354 357 364 359 359 358 359 356 355 356 353 343 341 344 339 338 341 342 348 361 350 348 348 348 347 347 349 350 351 351 354 354 356 356 356 360 360 360 360 360 359 359 360 362 365 366 368 370 370 369 369 369 371 371 371 373 374 372 370 370 369 369 369 368 367 365 364 363 363 362 362 360 357
362 359 359 357 360 358 357 358 361 357 361 359 363 365 358 359 358 357 356 357 354 356 354 341 339 336 338 336 339 338 346 349 346 345 345 344 344 346 347 344 344 346 350 353 354 353 353 356 359 358 360 361 360 360 360 359 360 361 365 365 368 370 371 371 373 373 372 373 373 371 370 369 369 369 368 367 367 366 366 364 363 363 362 361 359
363 363 361 360 359 357 357 358 359 364 357 356 355 355 357 357 358 357 355 351 355 358 356 348 343 340 339 339 332 333 344 341 344 344 345 345 343 342 344 343 343 346 350 351 352 354 350 352 353 355 357 360 361 361 361 360 361 363 364 364 364 367 369 370 371 372 370 371 369 369 369 369 369 369 368 367 366 366 365 365 364 363 362 362 361
362 362 367 360 357 358 359 359 359 361 356 359 358 355 356 359 359 359 355 352 352 352 360 349 347 344 338 335 330 334 333 337 337 342 344 346 343 341 341 342 343 348 351 350 348 351 353 353 351 353 355 358 361 362 362 362 361 363 366 366 365 364 367 369 371 372 373 374 370 368 367 366 366 367 368 367 366 367 366 365 364 363 363 362 362
361 361 366 361 359 359 361 361 360 358 361 359 357 355 357 358 359 358 356 354 351 349 352 356 351 345 340 338 336 332 331 334 331 340 339 344 343 343 344 344 344 347 348 347 350 350 348 348 352 352 353 356 359 361 363 362 362 365 366 365 365 365 365 368 370 371 372 374 370 368 368 367 367 366 367 367 367 366 365 365 364 364 363 363 362
360 360 361 365 361 361 361 361 361 361 361 357 356 357 356 356 359 358 358 359 355 349 348 355 354 357 347 341 345 341 336 336 333 338 343 347 344 345 342 342 344 342 347 345 344 345 350 348 350 350 352 354 358 360 362 363 365 366 366 365 365 368 366 367 368 370 371 372 369 369 368 367 367 367 367 368 368 366 366 364 364 364 364 364 364
361 360 360 365 363 360 361 360 361 360 367 358 358 356 355 355 363 361 359 362 352 350 349 348 352 354 352 350 353 351 338 340 340 337 336 343 342 342 342 341 341 342 344 344 344 344 346 349 347 346 350 356 359 361 363 362 361 364 365 367 367 366 365 364 364 367 369 370 368 368 369 368 367 367 366 365 366 365 364 364 363 363 364 364 364
359 359 360 363 364 359 361 361 360 357 364 362 358 356 358 357 364 359 359 361 356 353 351 350 348 348 354 348 349 351 349 343 342 339 335 333 336 340 343 340 341 344 348 346 346 346 346 349 346 346 353 356 359 359 360 361 362 361 360 359 362 363 363 362 362 363 366 369 369 368 367 367 366 365 364 365 365 365 364 364 364 364 365 365 364
358 358 359 361 367 363 360 361 360 358 367 366 361 360 357 359 361 360 358 358 360 358 351 352 350 349 347 348 346 346 347 348 347 347 343 334 335 335 340 341 343 343 345 348 350 350 350 349 351 353 360 361 358 358 358 360 361 361 359 359 363 363 363 361 361 365 365 367 368 366 366 366 366 366 365 365 365 365 365 364 365 365 367 366 365
357 358 358 359 362 365 360 359 360 359 366 365 359 358 357 360 362 361 362 358 358 358 357 354 354 353 348 348 346 347 346 346 342 343 340 340 338 336 337 338 340 348 345 348 351 353 353 353 351 349 352 356 356 357 359 360 362 358 359 361 363 363 363 361 361 365 365 364 364 364 364 364 364 364 364 364 365 365 364 364 364 365 366 366 365
356 359 358 359 360 364 361 358 359 365 368 361 358 356 357 358 359 360 361 361 359 358 358 357 356 355 350 350 346 344 344 341 344 342 338 339 339 338 339 342 339 339 350 348 357 353 353 354 353 352 356 356 358 361 363 364 364 361 362 362 360 361 362 363 363 363 360 359 361 365 366 363 362 362 363 363 363 363 364 363 364 364 365 364 364
355 356 357 358 360 361 365 362 364 361 361 360 358 358 360 360 358 357 358 359 361 360 356 356 354 355 354 351 350 347 347 346 344 346 344 344 340 339 340 343 344 342 342 352 353 354 354 355 353 355 358 361 363 364 364 364 363 361 363 360 357 358 360 362 363 361 358 356 356 358 358 359 360 361 362 362 362 362 362 362 363 364 364 364 362
354 355 356 357 359 359 359 359 359 362 362 360 359 359 362 360 359 360 360 359 360 359 359 358 355 355 355 354 350 347 346 346 345 347 347 342 344 342 342 339 343 344 350 348 353 353 354 356 356 356 359 363 360 363 361 360 361 360 362 359 355 356 357 358 360 358 357 354 354 357 357 359 359 359 360 360 359 360 360 361 362 362 363 363 363
353 354 356 357 359 359 361 359 359 359 361 361 359 360 361 357 359 358 359 359 359 361 361 360 358 358 356 356 356 350 349 349 348 347 346 346 346 342 345 345 342 343 347 350 350 348 353 357 358 359 360 363 362 362 363 358 357 359 361 358 355 353 354 355 358 357 356 353 353 355 356 358 359 360 361 359 359 359 360 361 361 361 363 365 365
354 356 358 358 358 359 359 359 358 359 360 361 361 361 361 359 362 358 361 361 360 362 360 359 357 359 359 358 358 355 352 355 352 350 347 346 348 348 344 341 341 339 343 346 346 349 348 355 357 358 360 367 365 364 363 359 357 359 360 359 357 352 351 352 352 353 354 354 354 354 356 357 357 360 360 359 358 360 362 361 361 361 360 360 361
355 357 357 358 358 357 359 359 359 358 359 360 360 360 360 361 360 361 359 364 366 362 361 359 359 361 359 359 358 357 356 356 357 354 353 352 355 349 351 347 343 341 341 345 343 351 349 354 358 359 360 363 363 363 363 356 355 358 359 358 357 356 351 349 349 349 349 350 351 352 355 356 356 357 359 360 358 357 359 361 361 360 358 358 359
355 357 357 357 358 358 357 357 358 359 359 360 360 360 361 362 363 361 361 360 364 360 359 361 362 361 360 361 359 359 359 362 359 359 361 360 355 355 353 351 348 346 342 341 345 346 355 352 350 364 360 363 363 361 359 358 356 358 357 358 357 359 349 346 347 346 347 348 349 351 353 355 355 356 358 357 356 356 358 358 359 358 357 357 359
356 356 358 357 357 362 358 357 358 359 360 360 361 361 361 362 362 362 362 361 361 362 360 361 361 362 362 361 359 360 361 360 359 358 361 360 358 356 355 353 351 351 346 344 345 345 350 353 353 358 364 362 359 359 356 356 355 356 358 357 357 357 345 347 347 347 347 347 347 347 350 351 353 352 351 351 351 353 355 356 356 355 355 354 355
359 358 357 356 357 357 359 357 357 359 359 360 361 361 361 360 360 361 361 361 361 360 361 361 362 362 360 360 360 360 360 359 360 358 359 360 359 358 360 354 351 354 350 348 345 354 348 354 356 357 356 360 357 355 351 355 356 356 358 358 358 351 349 353 349 347 347 345 345 344 344 346 347 346 346 348 350 352 353 353 351 352 351 351 351
358 358 358 357 357 356 356 357 356 357 358 359 359 360 360 360 360 359 360 361 361 360 360 360 360 361 361 360 361 361 361 360 360 359 359 360 360 357 358 358 357 354 354 350 348 348 354 353 356 357 358 358 357 351 354 354 355 355 359 357 359 353 358 359 353 349 347 346 344 343 342 342 342 343 345 347 350 351 352 349 347 347 347 346 346
358 357 358 359 358 357 356 358 356 357 358 359 359 360 359 359 359 359 360 360 360 360 361 361 361 361 361 360 360 361 360 360 360 358 358 358 358 358 358 356 356 357 354 351 349 350 354 353 353 357 358 355 350 352 353 354 356 358 355 357 358 356 357 360 361 353 348 346 343 341 341 341 340 340 343 346 349 349 349 346 342 342 341 341 339
358 357 358 358 359 358 357 357 358 357 358 359 358 358 358 358 358 358 359 359 359 360 359 359 360 360 361 360 361 361 361 359 359 357 358 357 356 357 356 356 355 357 357 354 352 352 349 352 354 354 351 352 350 353 353 352 354 358 355 355 355 357 358 362 363 361 350 346 342 340 341 340 340 340 341 344 346 346 345 342 338 336 336 335 332
358 358 358 358 359 359 359 359 358 357 359 358 358 358 358 358 357 358 359 360 359 359 358 359 359 360 359 360 360 360 358 358 357 357 357 356 357 356 355 354 354 353 354 357 354 349 348 350 350 349 352 353 351 354 354 354 357 355 355 354 353 356 358 359 361 360 351 347 343 342 342 340 340 339 339 340 342 340 339 336 333 331 331 329 328
356 358 358 358 358 359 358 359 358 358 358 358 358 358 358 358 358 358 359 359 359 359 358 359 359 360 359 359 359 359 358 357 357 357 357 355 356 356 355 356 355 354 354 355 355 353 350 349 353 350 353 349 355 353 353 355 354 354 352 354 356 359 358 358 359 360 355 347 345 344 343 341 340 339 338 338 336 333 332 332 332 332 330 328 328
356 356 358 358 358 358 357 358 358 358 358 358 359 358 358 359 358 358 359 359 359 359 359 360 361 361 360 359 360 359 358 356 356 355 355 355 354 354 354 355 355 354 355 356 355 353 350 349 351 349 348 350 352 353 354 353 353 354 355 355 356 358 360 358 358 359 351 348 349 346 344 343 343 340 338 337 336 335 334 334 333 331 329 327 326
356 356 356 356 357 357 358 358 359 359 359 359 359 359 358 359 358 359 359 359 358 359 359 359 359 361 361 361 361 360 358 356 356 356 356 354 351 350 351 352 352 351 349 350 354 354 352 352 349 349 351 350 354 355 354 354 351 350 352 355 359 360 358 356 357 358 359 358 358 358 350 349 346 341 338 337 337 335 336 335 334 332 329 326 324
355 354 354 355 357 357 358 358 358 359 359 358 359 359 359 359 359 359 358 358 359 358 359 358 359 360 360 359 360 359 358 357 355 355 355 353 350 351 353 352 351 349 348 349 350 350 350 348 349 348 348 349 349 352 356 354 353 351 349 352 355 358 358 356 356 358 359 358 355 350 351 350 346 349 337 337 338 337 338 337 335 333 331 328 325
355 354 354 354 355 356 356 357 358 359 359 358 358 359 359 358 358 358 358 358 358 359 359 360 360 360 360 359 358 359 358 358 357 356 355 354 354 351 352 351 351 350 349 350 350 349 349 349 350 348 349 350 352 351 351 353 354 353 353 351 350 352 354 356 356 356 358 359 357 357 354 352 351 349 343 344 343 341 339 340 338 338 333 329 327
354 355 355 354 355 355 356 357 358 358 357 357 358 358 358 358 358 357 358 358 358 358 358 358 359 359 359 358 358 358 359 362 364 363 361 358 355 354 355 353 352 351 350 350 351 351 351 349 349 348 347 348 349 349 349 350 350 349 351 352 351 353 353 353 355 359 358 355 356 357 357 357 355 355 355 356 356 347 344 340 339 339 333 328 327
354 356 355 355 354 354 354 355 356 356 357 357 360 362 362 360 358 357 357 359 358 358 358 358 357 357 356 356 355 361 363 366 367 372 369 369 370 363 361 355 354 353 352 350 351 351 350 347 346 347 345 346 348 349 348 349 351 352 353 353 350 351 351 350 353 356 358 355 353 354 356 356 354 353 354 354 353 349 345 344 340 335 330 327 327
353 354 356 353 352 353 353 354 354 354 355 356 359 345 346 356 362 358 358 358 359 358 357 358 357 357 357 356 355 356 367 372 367 366 366 365 366 368 366 365 358 356 352 350 350 348 349 348 348 346 346 348 349 349 349 350 351 352 352 351 350 349 346 343 342 350 359 355 353 351 354 357 355 350 352 353 353 348 342 340 334 331 328 327 327
352 353 353 352 352 352 353 353 353 354 355 353 341 342 346 346 359 362 358 357 357 357 357 357 357 356 356 354 353 362 362 358 356 355 359 364 362 362 363 363 363 361 356 354 352 349 348 348 347 347 347 348 349 350 351 351 352 351 352 350 349 347 345 344 344 343 352 357 351 350 350 356 355 349 349 350 353 347 342 331 330 328 327 327 327
350 351 351 351 351 352 352 352 353 354 355 346 340 340 339 340 342 360 360 360 358 357 357 357 357 357 356 355 356 357 356 365 361 353 355 359 360 359 358 359 363 357 342 341 344 352 350 349 347 347 348 350 351 353 353 353 352 349 349 349 349 348 347 346 346 346 350 355 352 348 347 351 350 346 345 348 353 348 339 332 328 328 326 326 326
349 348 349 350 350 351 350 351 352 353 354 339 332 332 332 332 334 342 353 356 357 358 358 356 355 355 355 354 356 354 352 354 353 352 355 355 356 357 357 357 358 358 352 347 346 346 351 350 350 350 353 352 352 353 354 354 350 349 349 348 349 347 347 346 349 349 352 345 340 341 345 342 343 343 343 347 352 346 341 329 325 325 326 325 325
349 349 349 349 349 351 350 350 350 349 341 324 325 327 326 327 330 341 347 349 351 353 354 355 356 355 354 354 355 353 351 349 350 352 351 353 354 354 356 355 355 353 351 350 351 353 353 352 353 353 352 352 352 352 352 352 351 351 350 349 349 349 348 350 350 351 349 341 340 339 334 336 341 342 343 347 349 342 340 329 324 324 324 323 323
349 350 349 350 348 347 346 346 347 341 329 319 320 320 321 323 330 344 348 349 349 350 351 352 353 355 355 355 354 351 349 348 348 333 342 349 352 352 353 353 352 350 349 347 334 340 348 348 350 349 348 343 337 343 343 344 348 350 350 351 349 347 345 342 340 343 345 341 338 336 335 336 341 339 342 348 349 338 337 335 327 324 323 322 322
348 347 345 341 340 340 341 338 338 333 332 322 316 316 317 317 334 347 349 350 350 349 352 354 355 355 353 351 349 347 344 343 330 323 326 344 348 349 349 349 349 348 343 343 340 336 331 328 327 328 327 327 327 326 326 329 337 343 344 339 337 341 339 335 336 336 340 332 332 334 335 336 339 338 341 347 348 337 333 332 333 325 322 321 319
347 345 343 339 338 339 337 335 335 334 331 324 315 314 315 317 331 343 348 351 352 352 353 353 353 352 352 354 348 344 342 337 323 322 325 343 347 346 348 348 347 346 342 341 345 342 333 330 329 329 329 329 330 331 330 329 331 338 340 333 335 339 332 333 330 331 338 332 330 332 337 336 337 336 338 345 349 343 333 331 331 330 326 324 319
344 343 342 339 336 337 339 340 339 333 332 329 315 313 313 316 331 340 343 348 349 350 351 350 348 349 350 350 346 339 336 326 316 320 322 341 343 344 345 346 344 342 339 339 342 338 335 334 335 335 335 335 336 335 336 336 335 336 334 334 337 335 333 334 332 332 330 330 329 332 334 334 330 330 334 334 335 344 341 333 328 329 330 331 327
Wind_Speed
4 3 3 4 4 4 3 3 3 3 3 3 3 4 4 3 3 4 3 4 4 5 4 4 3 3 3 3 3 2 3 2 2 2 2 3 4 5 8 10 10 10 10 9 9 9 8 9 9 9 9 9 10 10 10 10 10 10 10 10 10 10 10 10 11 11 11 11 11 11 12 12 13 14 14 15 14 13 10 6 8 8 9 10 10
3 3 4 4 3 4 3 3 3 3 3 4 3 3 3 4 4 4 4 4 4 4 3 5 4 3 3 3 2 2 2 3 3 2 2 2 4 4 8 10 10 10 10 10 10 10 10 9 9 9 10 10 10 10 11 11 11 11 11 10 10 10 11 11 11 11 11 12 12 12 12 12 12 11 10 10 9 9 9 8 6 5 5 5 6
3 3 3 3 4 3 3 3 3 3 3 3 3 3 3 3 4 4 4 4 5 4 3 4 5 4 3 3 2 2 2 2 2 2 2 2 3 4 4 8 9 10 10 11 11 10 10 10 10 10 10 10 11 11 11 11 11 11 11 10 11 11 11 11 11 11 11 11 11 10 10 10 10 10 10 10 11 11 11 9 7 5 5 5 5
3 3 3 3 3 2 2 3 3 3 3 3 4 4 3 4 4 3 3 3 4 4 3 3 5 4 3 3 1 2 2 2 2 2 3 2 2 3 3 3 6 9 10 11 11 11 10 11 10 10 10 11 11 11 11 11 11 11 11 11 11 11 11 11 10 10 10 10 10 9 9 9 8 8 8 9 11 11 9 9 8 8 8 7 5
2 2 2 1 1 2 3 2 3 3 3 3 4 3 3 3 4 3 4 3 3 5 4 3 4 4 2 3 2 2 2 2 2 3 3 3 2 2 2 3 3 6 8 10 11 11 11 11 11 11 11 11 11 11 11 11 11 11 11 11 11 11 11 11 10 9 9 9 8 8 8 7 7 7 8 9 10 9 8 9 8 8 9 8 7
3 2 1 0 1 2 3 3 3 3 3 3 4 3 4 4 4 4 4 4 4 5 4 5 4 3 2 3 3 3 2 3 3 3 3 3 2 2 2 2 2 3 3 7 8 9 10 11 11 11 11 11 11 11 11 11 11 11 11 11 11 11 11 10 10 9 8 8 8 7 7 7 7 7 8 8 8 8 9 9 9 9 9 8 9
2 2 1 0 2 3 3 3 3 3 3 3 3 3 3 3 3 4 4 4 3 4 3 3 4 5 3 2 4 2 3 3 2 3 3 3 2 2 2 2 2 2 3 3 5 8 8 9 10 10 11 11 11 11 11 11 11 10 10 10 10 10 10 10 9 8 8 8 8 7 7 7 7 8 8 7 8 8 8 8 9 10 10 10 10
2 2 1 1 2 3 3 4 4 3 3 2 2 3 3 3 2 1 4 5 5 6 3 4 4 4 4 2 2 2 3 2 2 3 2 2 3 2 2 3 3 3 4 3 3 4 8 8 9 9 10 10 11 11 11 11 10 10 10 10 10 10 9 9 9 8 8 8 8 8 7 7 7 7 7 8 8 9 8 8 9 9 10 10 10
2 2 1 1 2 3 3 3 3 2 3 2 2 2 3 3 4 2 1 4 5 6 6 3 4 3 3 1 1 1 2 2 2 2 2 3 3 3 3 3 3 5 3 3 3 3 5 8 8 9 10 10 10 10 10 10 10 10 9 9 9 9 9 9 8 8 9 9 8 8 8 8 7 7 8 8 8 9 8 7 8 10 10 10 10
2 2 1 1 1 2 3 3 3 2 2 2 2 2 2 2 5 3 2 3 4 4 6 5 3 3 3 3 2 0 3 3 2 2 3 4 4 4 4 3 3 4 3 4 4 3 4 5 8 9 9 10 9 9 8 9 9 10 9 9 9 9 9 9 8 9 9 9 9 9 9 9 8 8 9 9 9 10 9 8 8 9 10 10 10
2 2 1 2 2 3 3 4 2 2 2 3 3 3 4 3 4 5 4 2 3 3 4 5 4 2 3 3 3 4 3 2 3 3 4 4 5 5 3 4 3 4 4 4 4 4 4 4 4 3 4 8 9 9 9 8 8 8 9 8 8 9 9 9 9 9 10 10 10 10 10 9 9 9 9 10 10 10 10 9 10 10 10 9 9
2 2 1 2 2 3 4 3 2 1 3 4 3 4 4 5 6 4 6 4 1 1 2 4 2 3 3 4 3 3 4 2 3 4 3 4 4 3 4 3 3 4 4 4 3 4 4 4 4 3 3 5 8 9 9 9 8 8 8 8 8 8 9 10 10 10 10 10 10 10 9 9 10 10 10 10 10 10 10 10 10 10 11 11 10
2 2 2 2 2 3 3 3 1 2 2 2 2 3 2 2 3 2 3 5 3 4 2 2 3 2 4 5 5 1 3 3 4 3 4 4 3 4 3 3 4 5 5 3 4 3 3 3 3 3 3 3 4 6 8 9 9 9 9 8 9 9 10 10 11 10 11 11 11 10 10 10 10 10 10 10 10 11 11 10 10 11 11 11 11
1 2 2 2 3 3 3 3 0 2 2 2 3 3 3 4 3 4 2 2 2 3 5 2 5 2 2 4 5 6 3 3 3 4 2 2 3 3 3 4 5 5 3 3 3 3 3 3 3 3 3 3 4 3 3 4 5 8 8 10 10 10 10 11 11 11 11 12 11 11 11 11 11 11 11 11 10 10 11 11 11 11 11 11 12
2 1 1 2 3 3 3 1 1 1 2 3 3 4 3 3 3 3 5 1 2 2 4 3 2 1 2 1 3 5 5 5 3 3 2 2 2 4 3 5 6 4 3 3 3 3 3 3 4 4 4 4 4 3 3 4 6 8 10 10 11 10 11 11 12 12 13 12 13 12 12 11 12 11 11 11 10 10 10 11 11 11 11 11 12
1 1 1 2 3 3 2 2 1 1 0 3 4 4 4 4 3 3 1 4 4 4 3 4 3 1 2 2 1 1 3 3 4 6 2 4 2 3 3 4 5 4 3 3 2 3 4 3 5 5 5 4 4 4 3 3 6 8 9 10 11 11 10 12 12 13 12 12 14 13 12 12 12 11 11 11 11 11 11 11 11 11 11 11 12
1 1 1 1 2 2 2 2 1 0 0 2 3 3 3 2 2 3 4 2 5 3 3 3 4 1 5 1 1 2 1 4 3 4 4 4 4 4 3 3 4 4 3 3 3 3 4 4 5 5 5 3 5 4 3 3 4 4 6 7 10 10 10 11 12 12 12 12 13 13 13 12 11 11 11 11 11 11 10 10 10 10 10 11 12
2 2 2 1 2 2 2 1 1 1 1 2 2 3 4 3 2 2 3 2 0 4 4 3 2 3 1 1 2 0 2 2 0 2 5 1 3 3 3 3 2 3 3 4 5 5 3 4 4 5 4 3 4 4 3 2 3 3 4 6 8 9 11 11 12 12 13 12 13 13 13 13 12 11 10 11 11 10 10 10 9 10 10 10 11
2 2 2 2 2 3 3 2 1 1 1 1 3 3 3 3 2 2 2 2 2 4 5 4 2 1 2 1 1 1 1 1 2 0 2 4 3 3 5 6 4 3 4 4 4 4 4 4 6 5 3 3 3 2 1 2 4 5 8 10 11 11 11 11 11 11 12 12 13 13 13 13 12 12 11 10 9 9 9 10 9 9 9 9 10
3 3 2 2 2 3 2 2 1 0 1 2 3 3 3 2 2 1 2 2 2 3 4 4 4 4 3 3 2 2 1 2 2 1 1 1 5 4 0 5 4 4 3 5 5 5 6 6 5 4 2 2 2 1 1 2 3 4 5 8 9 10 10 10 11 12 12 11 12 12 12 12 12 12 11 10 8 8 9 9 9 9 9 9 9
3 3 3 3 3 3 2 2 2 2 2 2 2 2 3 3 2 3 3 3 1 1 2 4 3 3 4 3 2 3 2 2 1 2 1 0 2 2 4 5 3 4 5 4 3 3 4 4 4 4 2 2 1 1 1 2 3 4 5 8 9 10 10 10 10 11 11 10 10 11 11 11 11 11 10 9 8 7 8 8 8 9 9 9 9
3 3 3 3 3 3 3 3 4 3 2 3 2 3 3 3 2 1 1 3 2 1 2 1 1 2 1 1 3 2 2 2 2 2 1 2 2 2 2 2 4 4 3 4 4 3 4 4 4 4 3 2 2 2 2 3 3 3 5 9 9 9 9 9 9 9 9 9 10 10 10 10 10 10 9 9 8 8 7 8 8 8 9 9 8
3 3 4 3 3 3 4 4 3 2 1 2 3 3 3 3 1 0 1 2 3 3 2 1 1 1 2 2 2 2 1 0 2 2 1 2 3 3 2 1 2 4 3 4 3 3 3 4 5 4 5 4 3 3 4 4 3 5 8 8 8 7 7 7 8 8 9 9 9 9 10 11 11 11 11 11 11 10 9 8 8 8 8 9 8
3 3 4 3 4 4 4 3 3 2 3 2 2 2 2 1 1 1 0 1 1 2 2 3 2 1 2 1 1 2 1 2 2 2 1 2 0 2 2 3 1 3 4 5 2 3 3 3 2 3 3 3 4 4 5 4 4 8 8 8 8 9 9 9 9 8 8 9 10 11 11 12 12 12 12 12 11 11 10 9 8 8 8 9 8
4 4 5 5 4 4 4 4 3 3 3 2 3 2 2 2 2 1 0 2 1 1 3 2 2 3 3 2 1 1 2 2 1 1 0 1 2 2 1 0 2 3 2 2 3 4 1 3 2 2 3 4 5 6 4 4 4 7 9 7 10 9 10 10 10 8 7 8 9 10 11 11 11 12 11 11 11 11 10 9 9 8 8 8 8
5 6 5 4 4 5 4 4 4 3 3 3 3 2 1 2 1 2 2 1 1 1 1 1 1 2 1 3 2 2 2 1 1 2 2 2 1 1 2 1 1 2 2 2 2 3 3 3 3 2 3 4 4 4 5 5 4 9 10 7 8 9 10 10 9 9 8 8 8 8 9 9 10 10 10 11 11 12 12 10 8 8 7 7 7
6 5 4 5 5 4 4 4 4 4 3 3 2 2 2 1 1 1 1 1 1 1 1 1 2 3 2 2 3 2 2 1 0 1 1 2 2 2 2 3 3 2 2 2 2 1 2 3 3 2 2 4 4 4 4 4 5 9 9 6 5 9 10 11 10 9 10 9 9 9 8 9 10 9 10 10 10 10 12 12 10 8 7 7 7
5 4 5 5 5 5 4 5 4 3 3 3 3 3 2 2 2 1 3 1 1 2 1 1 2 3 3 2 3 4 3 2 1 0 1 2 2 2 2 3 1 4 2 3 2 2 1 2 2 2 2 4 4 3 4 6 5 9 8 5 5 6 10 10 10 10 10 9 9 9 11 11 11 12 11 10 11 11 11 12 12 11 9 7 7
5 4 4 5 5 5 5 4 4 4 3 4 4 4 3 3 3 3 3 1 1 3 2 2 2 2 2 3 3 4 4 2 2 1 1 0 1 2 2 2 4 1 3 3 3 2 2 1 2 3 3 4 5 4 5 4 6 7 5 5 5 4 9 10 10 10 10 10 10 11 11 11 11 12 10 11 11 11 10 11 11 11 9 8 8
5 4 5 5 5 5 5 5 4 4 4 4 4 4 4 3 4 3 3 1 2 2 2 2 2 1 2 3 2 3 3 3 2 2 2 2 2 1 2 2 3 2 2 2 4 2 3 2 2 2 4 6 4 5 3 4 5 7 5 4 5 5 9 9 10 10 10 10 10 11 12 12 12 12 12 12 11 11 12 11 12 11 10 9 9
5 5 5 5 5 5 5 5 4 4 4 4 4 4 4 4 4 3 3 3 3 3 3 2 2 1 2 3 3 3 2 3 3 2 2 2 2 1 1 1 2 2 3 2 2 2 2 3 2 1 2 4 4 3 3 4 5 6 4 4 4 7 7 7 10 10 10 11 11 11 12 12 12 12 12 12 11 11 12 12 13 12 12 11 10
5 6 5 5 5 5 4 5 5 4 4 4 4 4 4 4 4 3 3 3 3 4 3 2 2 2 3 4 4 4 3 2 2 2 2 2 1 2 1 1 1 2 2 3 3 5 2 3 3 5 3 3 4 3 5 4 5 5 3 3 4 5 4 5 9 11 10 12 12 12 12 13 12 12 12 11 11 11 11 12 12 12 13 12 11
5 6 6 6 6 5 5 5 5 5 5 5 4 4 4 4 4 4 3 3 4 3 3 4 2 2 3 4 4 4 2 3 3 3 2 2 2 2 1 1 2 2 3 3 3 4 4 2 2 3 2 3 3 2 4 5 5 6 5 2 4 4 4 4 5 9 10 12 12 12 12 12 13 12 12 11 11 10 9 10 9 10 11 11 12
6 6 6 5 5 6 5 6 6 6 6 6 5 4 5 5 4 3 4 4 4 4 3 4 4 3 3 4 5 4 2 3 3 3 2 3 2 3 2 2 3 2 3 3 4 3 4 3 3 2 3 1 4 1 4 5 6 5 6 5 4 4 4 4 5 5 9 11 11 11 11 12 12 12 12 11 11 10 10 10 9 9 9 11 12
5 6 6 6 6 6 6 6 6 6 6 6 5 5 5 5 5 4 4 4 4 5 5 5 5 3 4 4 5 4 2 3 3 3 2 3 2 2 3 1 3 3 2 3 2 3 4 4 2 2 2 2 2 3 3 2 3 3 4 4 4 4 3 5 6 6 8 11 11 10 10 11 11 12 12 12 12 11 11 12 12 11 11 11 11
5 5 6 6 6 6 6 6 6 6 6 5 5 5 6 6 6 6 5 5 5 5 5 5 5 4 4 4 5 4 3 3 4 4 3 2 2 2 3 3 2 3 1 3 4 4 2 3 3 3 2 2 3 2 2 3 3 4 2 3 2 3 4 5 6 6 7 10 10 10 11 11 10 11 11 11 11 12 12 14 14 14 13 12 12
6 5 5 5 5 5 5 6 6 6 6 6 6 6 5 5 6 6 5 5 5 5 5 5 5 5 5 5 6 4 3 4 4 4 3 5 3 3 4 4 3 3 1 2 3 3 4 5 4 2 1 2 2 2 1 4 5 4 2 3 4 3 4 5 6 6 7 7 7 9 10 10 10 10 11 11 11 11 12 14 14 14 14 13 13
6 6 6 5 6 7 7 7 7 7 7 6 7 7 6 6 5 5 5 5 5 5 5 5 6 5 5 6 5 4 4 4 5 5 5 5 4 4 5 5 4 3 3 3 2 3 4 5 3 4 1 2 2 2 1 3 4 4 4 3 3 3 4 6 6 5 5 5 6 7 7 8 10 10 11 10 11 12 12 14 14 14 14 14 14
6 6 6 6 6 6 7 7 7 7 7 6 6 6 6 5 5 5 5 6 5 5 5 6 6 6 6 5 5 5 5 5 5 6 5 5 4 5 6 6 3 3 4 3 3 3 3 3 3 3 3 2 1 3 2 3 2 1 3 5 5 2 3 5 6 5 4 4 5 6 7 7 8 7 9 9 11 12 13 13 14 15 14 15 14
7 7 7 7 6 6 6 7 7 6 6 6 6 6 6 5 5 5 6 6 6 5 6 5 6 6 6 6 6 5 5 5 6 6 5 6 4 5 5 3 3 3 4 3 2 3 3 3 3 3 1 2 2 2 3 2 3 1 2 3 8 8 7 5 5 6 4 4 7 6 5 6 7 7 8 8 11 11 14 12 14 14 15 14 14
6 6 6 6 6 6 7 6 6 5 6 6 5 5 6 6 6 6 6 6 6 6 5 6 5 6 6 6 6 5 5 8 10 9 8 6 4 5 6 3 4 4 3 2 3 3 3 3 4 2 2 2 2 2 3 2 3 4 4 3 6 6 6 6 6 3 3 6 7 6 5 6 6 7 6 6 9 11 12 12 12 14 14 13 14
7 6 6 6 6 7 7 7 6 5 5 5 7 11 9 6 6 5 5 6 6 6 6 5 5 5 6 5 5 9 10 12 11 5 2 1 5 5 5 3 4 3 3 3 3 4 3 4 5 3 3 4 2 1 2 2 3 3 5 6 8 8 8 7 5 3 4 7 9 7 5 5 6 5 6 6 6 9 8 8 8 9 12 14 14
6 6 5 6 6 6 7 6 7 6 5 5 11 12 12 12 7 6 6 6 5 5 5 6 6 6 5 4 4 6 7 3 2 2 1 0 2 1 3 6 5 4 3 3 4 3 3 4 2 2 3 4 3 1 2 3 2 4 5 5 7 8 8 8 8 6 2 9 8 7 5 5 5 6 5 6 7 7 10 7 12 14 14 15 15
6 5 6 7 7 6 6 6 6 6 6 8 11 11 12 12 10 6 5 5 5 5 5 6 5 5 5 4 3 1 1 2 2 1 1 1 2 3 3 3 1 6 5 4 4 2 3 3 4 4 2 3 2 1 2 2 4 5 6 6 6 6 6 7 7 7 6 8 9 7 5 3 5 5 4 6 6 7 9 11 14 15 15 15 15
5 6 7 6 7 6 6 7 7 6 7 8 9 7 6 7 7 7 4 5 5 6 6 6 6 6 5 4 3 2 1 3 2 1 1 1 1 3 5 5 5 6 3 2 1 3 2 3 3 2 2 1 2 1 1 3 3 6 6 5 5 5 4 5 6 6 7 7 7 6 5 4 5 6 4 5 6 6 9 12 14 16 16 16 15
6 6 6 7 6 7 7 8 7 6 5 3 3 1 1 2 3 3 4 5 5 6 6 6 5 6 6 5 5 5 3 3 2 2 2 2 1 1 2 2 2 5 6 7 5 4 1 1 1 1 1 1 3 4 5 4 5 5 5 5 4 4 5 6 6 5 4 7 7 6 3 4 6 6 5 5 5 6 7 11 14 15 16 16 15
8 7 7 6 5 5 5 5 5 4 2 4 3 2 1 2 3 4 4 4 4 5 5 5 6 6 6 5 6 7 6 4 2 3 2 2 2 2 2 2 2 3 3 4 4 3 2 2 2 1 2 3 4 4 5 4 3 3 3 4 4 4 5 4 3 2 2 7 8 6 3 5 6 6 5 5 4 5 6 9 14 14 16 16 15
1 2 2 2 3 1 1 1 3 3 3 5 4 3 3 2 2 3 3 4 4 4 5 5 5 5 5 5 7 6 6 5 2 4 3 1 2 3 3 3 3 3 3 3 3 5 3 3 3 4 4 5 6 6 5 4 4 3 3 1 2 3 4 4 4 4 3 5 8 7 4 4 6 6 6 5 3 6 6 7 11 13 13 15 15
3 2 2 2 2 3 3 3 4 3 2 3 4 4 4 5 2 2 3 3 5 6 5 2 1 2 1 2 2 2 2 2 2 1 2 4 2 3 3 3 3 3 1 2 4 7 10 11 12 11 10 11 11 11 12 12 8 4 2 4 5 5 4 4 4 4 3 5 7 7 4 3 6 5 5 5 3 5 7 7 7 10 11 13 15
5 3 3 3 2 2 3 4 3 4 3 5 8 7 7 7 4 1 3 4 4 3 2 2 2 2 2 6 4 3 2 2 5 5 5 3 3 3 3 3 4 3 1 2 2 6 9 11 11 12 11 10 11 12 13 12 12 8 5 5 4 3 3 3 3 4 3 5 7 9 4 3 4 4 4 4 1 3 5 6 7 7 9 9 13
3 3 4 4 4 4 4 5 7 7 5 6 10 9 8 7 4 2 2 2 3 3 4 3 2 2 3 8 10 7 6 5 7 8 9 5 1 1 2 3 3 3 1 0 3 5 4 5 5 6 7 8 8 7 7 12 12 10 6 4 2 2 2 2 2 3 2 3 8 11 5 4 5 4 4 2 1 1 3 5 7 7 7 7 7
Wind_Direction
67 46 46 45 31 25 20 13 353 338 343 343 6 348 345 343 323 310 301 295 297 294 292 287 270 260 252 269 244 231 220 202 205 212 213 221 233 244 249 251 253 256 258 260 264 268 268 267 268 273 277 279 283 284 283 285 288 291 292 295 298 296 296 295 293 294 296 294 291 289 284 285 286 287 291 293 296 295 305 287 288 276 268 264 259
65 40 51 26 20 5 4 352 338 327 346 337 352 343 322 314 306 297 300 291 290 284 301 298 299 285 250 252 235 226 202 203 203 215 221 222 240 245 251 253 255 255 259 262 264 268 274 279 281 282 284 285 286 289 289 287 289 293 295 297 294 295 295 296 298 299 299 297 295 295 298 301 306 311 314 314 307 309 319 324 329 316 304 302 290
75 70 58 35 4 358 345 328 327 343 342 332 317 314 303 287 295 297 296 292 281 297 304 296 298 308 282 250 247 181 202 203 213 212 226 229 237 245 253 259 264 263 260 263 266 270 273 279 285 288 289 289 289 289 290 291 292 292 295 295 295 298 298 298 299 299 300 300 301 303 309 312 316 320 321 317 314 319 324 324 319 309 301 297 289
102 68 65 26 353 348 329 344 334 341 350 333 323 311 292 293 276 265 264 270 291 296 286 291 298 297 300 264 227 190 192 203 223 221 235 228 225 239 245 252 266 276 273 266 266 269 271 274 277 279 281 283 286 287 289 291 292 292 292 292 294 294 295 296 296 298 300 303 307 309 311 311 313 314 311 307 307 311 314 312 312 314 315 313 309
103 81 64 56 357 342 341 344 342 334 330 320 304 306 323 320 332 335 335 327 325 316 326 305 294 304 297 263 223 223 202 195 225 233 232 229 220 235 243 254 266 272 279 283 279 274 273 274 276 277 279 279 280 282 282 284 286 287 286 288 290 291 291 292 294 297 299 301 302 305 306 307 308 307 301 299 301 301 298 298 300 307 308 308 300
129 107 103 65 330 342 327 337 342 334 327 322 333 346 335 341 333 349 335 336 317 307 320 320 314 296 261 249 216 229 202 211 219 234 238 233 215 221 236 238 251 268 278 276 277 283 284 282 280 279 280 279 278 278 278 279 281 283 283 284 285 284 286 289 290 291 293 294 296 296 296 296 297 295 293 293 294 291 290 294 300 305 303 302 294
146 141 124 129 322 326 336 332 337 333 326 338 342 330 328 332 334 342 316 317 297 287 296 309 313 308 280 221 226 215 220 228 228 240 234 234 207 231 229 236 237 238 259 268 274 273 275 279 281 281 279 277 277 278 279 281 281 283 283 283 282 282 283 285 285 284 285 288 289 290 289 288 285 286 288 287 286 285 290 297 302 301 300 299 295
142 127 128 9 326 322 322 340 343 331 337 348 352 356 352 352 322 277 335 325 334 320 353 332 319 303 304 274 269 242 230 257 257 262 274 261 244 241 237 240 239 246 250 248 256 261 264 268 274 278 279 279 276 274 277 281 283 285 285 285 283 282 284 285 283 281 280 284 286 285 282 278 278 281 278 274 274 275 281 291 294 291 289 290 291
140 118 129 331 333 318 320 332 322 328 327 337 1 357 10 347 325 284 184 308 321 314 321 344 320 322 327 345 294 279 266 270 275 264 277 256 261 253 247 243 245 253 247 250 258 267 267 270 273 277 280 279 277 274 275 278 281 282 283 284 285 285 286 286 284 281 280 283 282 277 274 273 276 274 269 267 268 270 271 277 282 284 284 288 290
149 134 115 262 265 291 306 321 327 334 334 338 9 345 14 360 338 314 330 323 310 317 314 324 327 328 350 14 343 12 253 242 210 243 231 254 249 248 241 248 250 247 249 250 255 254 264 268 270 276 277 279 278 274 266 269 273 275 276 281 284 286 286 285 281 279 278 278 277 273 269 268 268 264 259 261 262 264 265 262 259 267 277 281 287
167 166 150 308 315 298 305 301 304 329 322 360 12 360 358 350 351 325 329 299 262 290 301 302 313 326 7 347 345 333 300 251 223 226 227 239 248 247 230 235 237 239 244 242 242 246 257 263 266 264 272 273 278 278 277 273 272 270 272 270 280 283 285 285 282 279 279 276 272 269 267 265 263 258 252 253 256 260 262 259 255 254 258 262 274
170 162 154 293 289 292 295 297 347 11 357 14 357 4 351 337 341 339 329 338 337 295 340 322 289 50 6 339 334 313 304 255 232 227 218 233 238 245 253 252 240 255 247 244 238 248 249 258 260 264 276 282 282 282 283 281 278 276 277 275 279 278 281 281 281 280 279 277 271 268 266 263 260 256 251 248 250 256 259 257 255 254 253 252 245
167 153 213 271 271 294 286 302 345 3 0 13 313 310 311 319 318 318 335 359 321 342 17 30 46 4 357 0 337 271 262 257 249 253 238 240 234 240 244 255 249 250 251 241 249 256 257 256 263 266 269 277 284 283 285 285 281 279 279 275 275 276 279 280 281 281 281 280 275 271 267 264 260 255 253 249 247 254 253 253 252 253 252 250 248
179 165 220 224 279 273 251 255 47 18 5 332 335 321 345 3 342 343 51 24 293 323 333 12 35 74 30 331 343 324 323 328 321 284 295 283 259 255 253 249 255 250 249 231 251 251 259 262 262 272 268 269 276 283 287 285 283 279 281 280 279 280 280 282 281 282 283 282 282 279 273 267 263 259 257 254 250 249 249 250 251 251 249 249 248
160 169 210 242 235 238 236 184 90 12 1 6 345 351 354 345 345 11 338 10 262 274 352 28 112 134 120 65 351 4 331 355 333 319 330 288 247 244 247 251 259 267 260 251 251 268 269 269 274 267 263 258 267 264 269 275 277 281 281 280 282 282 282 282 281 280 284 282 288 287 283 276 271 265 261 259 255 253 251 251 251 251 249 246 246
144 157 335 201 204 221 196 174 137 51 351 334 334 338 339 340 347 0 49 349 2 328 23 30 105 132 1 30 262 83 358 326 323 299 294 299 342 307 271 265 276 296 318 282 285 270 265 254 258 261 256 250 264 260 258 266 278 282 281 282 282 283 283 284 284 285 284 286 294 294 290 284 278 271 266 263 260 257 255 253 253 253 251 253 256
173 192 220 192 202 223 186 180 127 50 248 300 319 308 312 306 310 339 25 33 352 332 322 20 46 78 134 105 356 15 233 253 349 287 345 351 349 334 305 286 296 305 304 294 279 259 264 265 264 268 264 255 258 255 255 262 279 282 290 284 282 286 291 289 288 289 288 288 296 297 295 291 285 279 273 267 263 260 259 257 255 254 252 252 255
204 240 260 178 199 216 179 158 130 200 227 281 303 336 321 344 337 331 5 19 56 9 1 360 40 64 94 187 179 149 254 281 32 310 317 214 300 328 4 354 325 311 315 304 306 302 298 294 286 280 286 245 250 260 268 278 278 282 279 284 284 291 295 294 292 291 292 291 299 299 299 298 296 290 282 276 271 265 263 260 257 257 255 253 256
229 204 231 231 198 209 190 163 125 128 280 11 311 306 310 311 332 349 3 10 56 39 21 319 344 359 31 60 127 280 201 61 319 256 345 319 350 340 353 356 358 15 351 334 327 320 323 312 309 307 301 246 243 249 302 296 291 285 282 282 293 298 299 297 296 295 296 297 304 303 301 301 302 303 298 290 281 272 264 263 257 256 257 253 253
218 218 204 209 206 214 183 162 137 209 238 270 283 299 314 315 28 357 328 30 36 49 7 6 58 345 353 17 24 66 64 100 130 345 174 19 330 333 308 1 2 32 12 0 360 354 338 328 320 317 300 280 322 358 302 272 262 273 277 287 288 293 299 305 304 302 303 303 309 311 311 312 313 311 309 305 297 283 269 263 261 256 256 254 251
214 219 218 202 216 205 192 178 178 228 221 245 259 262 282 309 352 4 15 354 9 47 63 29 17 10 348 5 17 28 16 37 92 95 104 106 298 318 311 326 352 8 4 346 341 324 324 314 312 324 326 323 41 219 248 280 298 290 288 297 295 304 312 314 308 305 309 315 318 322 322 323 322 320 318 317 313 300 283 269 261 257 244 250 249
224 219 238 215 212 191 197 205 211 216 226 223 230 256 268 260 293 348 331 335 360 287 67 89 38 324 72 23 15 16 6 342 14 31 38 40 99 310 302 356 354 306 318 337 324 323 331 342 357 6 355 349 342 337 348 339 319 305 312 311 313 318 321 314 310 313 319 325 327 328 331 332 331 330 332 334 330 319 303 287 271 260 250 249 246
218 225 226 227 202 195 195 208 194 194 201 179 220 242 268 265 246 82 338 340 351 21 38 64 111 6 39 83 62 61 30 269 270 300 332 302 13 334 311 197 250 313 298 324 317 327 339 3 11 12 8 2 354 344 16 354 328 328 317 316 325 332 330 331 333 331 330 331 330 330 337 343 345 347 352 350 344 340 331 311 290 273 259 253 246
217 222 235 217 204 202 200 177 187 180 231 223 243 237 276 277 246 172 132 316 347 30 18 25 29 64 28 6 324 248 225 216 215 192 194 272 194 285 283 317 303 235 284 320 287 325 344 2 353 353 351 357 356 14 2 342 334 341 343 340 347 354 358 354 348 343 339 338 343 350 353 350 350 352 353 350 350 347 342 334 317 297 279 267 259
219 211 223 212 203 206 206 200 206 204 202 203 244 229 221 230 224 237 112 289 303 1 11 341 337 18 355 334 316 279 288 278 220 199 91 111 141 323 278 132 283 307 311 6 343 317 275 335 332 332 353 357 4 5 351 344 339 345 349 346 350 351 353 352 351 352 352 356 356 353 353 351 353 352 349 350 352 348 344 343 336 324 301 279 267
207 214 212 198 205 210 204 211 209 203 204 206 220 215 202 237 229 234 263 234 255 281 282 316 290 323 318 334 349 336 311 312 243 175 181 164 165 258 312 301 215 285 293 328 326 348 331 324 333 331 355 9 360 351 345 344 343 348 350 345 343 351 351 352 348 353 6 6 358 353 346 352 356 358 356 353 351 346 342 346 345 329 313 292 277
211 215 201 200 205 202 206 209 214 215 215 223 218 177 197 213 216 233 278 227 236 264 276 331 334 345 346 326 316 319 320 310 269 243 190 209 217 186 156 358 339 344 341 308 312 241 272 290 297 325 7 348 352 344 340 342 347 346 350 348 347 351 353 353 351 0 11 7 2 358 359 6 3 355 355 351 348 338 333 339 341 339 332 314 291
210 199 212 194 196 204 204 217 217 216 218 225 234 224 198 207 237 236 274 261 290 289 285 300 322 322 321 308 326 326 315 321 304 269 213 210 233 150 126 118 75 330 325 315 333 294 207 297 319 265 350 353 342 346 343 354 358 349 358 359 357 351 358 354 360 11 11 6 4 8 13 11 2 355 348 345 349 344 337 336 340 341 340 329 305
202 198 201 204 198 196 205 216 220 220 222 221 217 218 208 204 213 217 253 292 303 282 297 279 290 314 311 329 319 302 305 312 302 286 314 278 238 224 179 173 162 113 307 327 301 290 291 238 316 306 1 348 345 348 349 358 356 356 2 3 1 355 355 354 4 12 11 6 7 11 13 8 360 354 346 346 345 344 345 345 344 341 336 333 316
199 197 190 199 204 207 204 218 223 217 220 216 207 208 193 208 210 216 226 187 263 274 254 253 280 273 298 308 324 306 298 304 300 306 313 316 315 255 235 184 161 241 192 278 295 227 278 296 211 294 333 334 339 342 352 339 360 4 10 4 358 1 346 356 1 6 6 4 4 10 10 4 359 355 351 348 352 360 5 358 353 344 342 339 326
200 200 194 199 200 210 207 218 217 220 217 216 204 204 190 206 207 224 220 202 223 256 251 241 265 263 295 302 292 280 283 293 296 304 300 291 324 289 290 118 188 178 168 164 307 291 178 299 296 217 293 303 328 318 340 339 358 8 7 357 351 344 350 355 353 356 360 358 358 9 8 2 357 355 352 350 358 10 14 8 0 354 354 349 339
198 196 196 201 201 204 210 216 220 218 217 220 207 206 199 210 220 224 228 211 225 241 258 243 259 266 273 276 276 274 280 276 277 283 291 298 302 314 236 222 213 195 149 157 198 277 238 242 279 291 279 288 307 335 342 333 346 13 2 343 337 333 354 350 350 347 352 353 357 3 5 360 356 354 354 353 1 13 18 15 6 3 2 353 343
190 195 199 206 203 203 209 214 219 218 217 219 203 197 202 220 231 234 241 227 239 249 248 279 269 259 261 261 270 275 288 301 301 306 305 304 313 292 248 226 242 174 174 167 222 267 289 234 254 269 315 327 311 8 343 338 342 343 347 355 339 350 352 349 339 342 347 347 351 356 360 359 356 355 356 357 1 12 18 24 14 8 3 355 352
191 200 204 208 208 204 207 212 215 219 218 217 206 192 200 216 231 219 231 230 234 249 264 265 272 260 252 260 266 265 254 267 281 285 293 302 304 302 276 241 259 231 195 189 212 223 269 310 287 283 283 162 312 272 1 339 334 334 335 339 343 350 347 342 337 333 342 339 342 349 355 358 356 357 359 359 2 6 12 23 26 21 13 9 360
197 203 204 207 210 208 213 216 210 213 212 210 204 195 205 209 220 226 229 222 224 238 239 247 257 264 268 255 266 273 277 292 280 278 280 281 281 278 286 252 262 257 207 222 189 238 255 273 257 293 269 300 268 297 330 306 288 294 305 328 338 337 346 337 334 334 338 331 331 344 350 359 358 360 360 360 3 6 10 15 21 23 19 15 9
204 207 206 207 204 209 214 217 212 214 209 210 202 203 208 207 214 224 223 224 227 232 236 245 251 248 252 264 264 267 279 273 278 285 283 275 276 269 275 269 245 268 198 191 216 235 249 263 270 237 279 308 273 257 278 287 317 329 335 298 297 332 337 339 331 329 330 320 325 342 348 353 359 1 360 2 3 7 13 16 16 20 21 19 16
210 204 206 204 204 201 212 213 214 211 213 208 205 210 214 211 215 223 226 225 228 232 237 240 246 245 244 242 257 257 238 255 268 266 267 275 272 270 267 261 247 242 217 205 214 206 218 244 277 265 281 265 255 282 351 349 333 331 332 339 329 329 336 336 327 322 310 312 321 344 346 345 356 0 2 2 8 12 21 21 19 20 22 21 19
208 206 204 199 199 203 209 212 211 215 212 210 210 214 215 212 214 222 226 228 231 231 235 238 243 243 247 248 250 247 242 247 264 268 262 265 267 265 261 255 240 227 235 232 210 204 215 249 234 296 296 310 326 309 328 342 330 324 330 329 318 338 336 334 330 321 333 343 348 349 345 344 356 356 6 3 16 24 25 25 21 22 21 18 17
206 207 207 204 207 205 210 209 211 209 212 210 211 214 218 218 216 219 229 229 231 232 232 238 241 242 243 247 247 240 239 238 254 263 275 270 257 262 253 262 255 229 240 231 202 203 215 242 254 227 274 273 264 312 321 322 289 276 320 330 330 333 332 333 319 323 334 340 330 321 334 332 342 358 359 9 23 34 24 29 22 24 20 18 15
209 208 207 206 208 206 211 210 214 210 209 210 208 210 213 215 215 222 225 231 232 231 238 238 241 244 244 246 247 241 238 238 235 253 239 261 252 263 254 243 247 232 247 228 205 205 208 222 245 270 232 306 309 275 280 305 345 339 17 348 328 329 334 330 308 316 341 347 345 344 351 350 1 4 7 22 27 39 32 27 27 23 19 17 17
209 212 209 206 204 207 215 214 215 210 209 214 208 204 210 212 210 221 222 226 228 230 236 241 241 243 245 247 249 249 244 251 245 246 248 229 225 250 262 200 232 225 239 228 215 206 221 232 259 231 265 269 259 304 330 343 353 322 320 327 312 315 321 322 318 331 17 348 342 339 358 0 354 6 7 28 31 33 35 30 26 22 19 20 19
215 213 214 210 208 209 211 216 214 212 214 214 219 218 211 210 206 217 220 223 225 227 233 245 254 248 247 248 254 257 259 261 262 242 158 227 236 228 254 206 224 220 220 219 211 210 223 238 245 255 256 259 266 282 289 274 299 299 323 335 329 330 331 330 313 343 358 352 348 345 348 9 357 360 12 29 27 36 31 29 23 20 21 24 25
219 217 209 208 211 211 214 216 216 218 219 220 222 222 223 222 216 205 214 221 219 223 225 230 246 254 254 247 257 261 259 227 143 107 173 269 26 17 281 236 210 202 202 222 234 211 219 233 249 225 242 265 270 259 268 299 313 327 323 325 325 332 339 339 336 331 37 353 344 338 338 4 2 2 12 28 27 39 33 26 17 27 28 31 32
226 216 215 217 217 213 214 216 219 221 224 229 226 226 224 222 221 212 209 218 221 217 222 227 235 244 254 262 245 211 225 214 171 192 225 96 40 28 33 40 319 232 230 215 232 214 203 232 243 243 255 265 285 268 286 303 327 325 323 325 326 330 333 334 325 332 332 343 337 337 323 1 357 1 14 28 36 45 43 26 25 30 34 36 38
218 218 223 217 222 217 213 217 219 219 224 227 225 227 231 229 228 232 216 218 221 225 221 223 226 230 229 232 224 198 221 212 190 205 178 171 88 69 56 44 50 60 48 52 312 248 205 211 236 249 229 271 274 268 289 332 328 311 316 312 317 326 325 313 325 334 336 339 336 342 327 352 360 351 7 23 35 44 37 27 28 34 36 37 39
226 232 230 224 224 218 215 216 222 221 221 135 141 168 240 271 264 254 248 225 226 227 226 223 228 225 215 211 201 213 208 220 211 213 187 158 161 110 78 64 80 72 73 75 70 57 79 219 190 253 35 202 297 311 322 324 311 300 306 314 332 326 320 319 329 311 344 14 7 328 304 350 3 348 358 9 31 49 52 36 34 39 39 38 38
220 223 224 233 238 241 244 232 226 210 87 80 100 135 190 216 217 226 241 248 240 237 234 227 226 226 212 210 205 204 189 198 194 203 184 174 149 145 122 116 95 74 54 41 31 21 25 38 42 9 3 351 324 324 331 332 322 315 308 312 332 339 318 306 274 285 52 39 18 4 336 334 360 347 349 355 18 49 45 47 35 39 42 39 37
185 165 125 156 184 157 43 256 199 131 57 44 51 42 7 337 251 228 220 240 249 249 247 237 234 232 222 206 200 196 193 185 135 6 323 235 154 161 150 139 136 114 76 45 22 22 40 43 54 58 53 55 58 56 41 29 18 355 355 29 22 355 344 355 1 333 38 53 34 18 344 330 1 351 332 345 14 48 36 41 37 33 42 40 36
172 165 132 112 123 125 117 105 118 108 95 38 49 39 25 15 347 250 247 243 251 250 247 254 245 239 195 194 197 171 117 126 74 35 328 266 181 175 170 153 153 142 80 31 58 62 74 80 81 84 84 79 72 64 55 45 34 7 51 46 21 359 12 360 354 339 31 34 28 7 335 316 2 352 331 340 26 46 40 31 28 28 33 43 35
159 141 130 109 72 77 104 108 127 127 97 45 34 30 35 28 6 314 279 259 254 268 255 234 226 165 187 151 112 92 106 67 27 359 326 269 205 184 178 157 160 154 106 32 95 92 92 81 76 74 70 65 64 62 53 49 43 36 50 56 357 347 33 12 338 326 332 38 19 356 337 12 330 7 339 321 334 68 47 37 22 20 23 38 36
291 143 123 110 96 84 95 105 100 91 82 48 30 23 29 33 37 24 7 313 270 246 231 201 89 110 76 78 70 66 72 58 36 21 6 348 212 125 153 147 164 142 86 334 115 115 93 80 62 68 54 53 54 52 52 52 51 52 55 61 360 35 42 11 338 318 296 24 7 352 334 1 347 6 346 347 338 79 71 50 30 21 25 26 25